Terminal Aerodrome Forecast
Issued by NWS

Home | Current Version | Previous Version | Text Only | Print | Product List | Glossary On
Versions: 1 2 3 4 5 6 7 8 9 10 11 12 13 14 15 16 17 18 19 20 21 22 23 24 25 26 27 28 29 30 31 32 33 34 35 36
075
FTUS45 KBOU 231741
TAFBJC
TAF
KBJC 231741Z 2318/2418 23015G25KT P6SM FEW120 SCT220
     FM232300 24014KT P6SM FEW100 SCT150 BKN220
     FM240200 35018G28KT P6SM VCSH SCT030 BKN120
     FM240400 35018G28KT 4SM -SHRA SCT010 BKN040
     FM240700 35028G42KT 2SM -SHSNRA SCT008 OVC015
     FM241000 34030G45KT 1SM -SNRA BKN008 OVC015
     FM241700 24025G35KT P6SM VCSH SCT030 BKN060=

USA.gov is the U.S. government's official web portal to all federal, state and local government web resources and services.